Temp
92 92 83 84 84 85 85 85 84 84 84 84 84 84 84 84 84 84 84 84 84 84 84 84 84 84 84 83 83 83 83 83 84 84 84 83 83 83 83 83 84 93 83
96 94 83 84 84 85 85 85 84 84 84 84 84 84 84 84 84 84 84 84 84 84 84 84 84 83 83 83 83 83 83 83 83 84 84 84 84 83 84 83 84 87 83
97 95 90 83 84 84 84 84 84 84 84 84 84 84 84 84 84 84 84 84 84 84 84 84 83 83 83 83 83 83 83 83 83 83 84 87 94 83 82 83 83 83 83
98 97 95 82 83 84 84 84 84 84 84 84 84 84 84 84 84 84 84 84 83 83 83 83 83 83 83 83 83 83 83 82 83 83 90 96 93 83 83 83 83 83 83
98 99 95 83 84 84 84 84 84 84 84 84 84 84 84 84 84 84 84 84 83 83 83 83 83 83 83 83 83 83 83 83 83 85 93 93 93 86 83 83 84 83 82
99 102 86 83 84 84 84 84 84 84 84 84 84 84 84 84 84 84 84 83 83 83 83 84 84 84 84 84 84 83 83 83 83 96 94 91 92 83 83 83 84 85 83
100 102 94 83 84 84 84 84 84 84 84 84 84 84 84 84 84 84 84 84 83 84 84 84 84 84 84 84 84 84 83 84 90 95 94 93 94 83 82 83 84 84 83
100 101 95 85 83 84 84 84 84 84 84 84 84 84 84 84 84 84 84 84 84 84 84 84 84 84 84 84 84 84 84 83 92 95 95 96 86 82 82 83 83 82 83
101 100 96 92 88 84 84 84 84 84 84 84 84 84 84 84 84 84 84 84 83 84 84 84 84 83 84 83 83 83 83 84 89 91 95 97 82 82 82 83 83 83 83
98 100 97 95 94 93 93 84 84 84 84 84 84 84 84 84 84 84 84 83 83 84 84 84 83 81 82 84 84 83 84 84 91 92 89 94 83 82 83 83 83 82 83
96 98 97 97 94 94 94 90 85 84 84 84 85 85 86 94 96 94 88 84 84 84 84 84 82 85 84 84 85 83 83 88 85 96 96 84 82 82 83 83 83 83 83
94 96 98 98 97 96 96 93 92 94 95 94 95 93 95 96 94 92 88 84 84 84 84 84 84 84 84 94 94 88 99 95 87 97 98 84 82 82 82 83 83 83 82
95 96 97 97 96 97 96 96 96 97 97 96 92 92 94 94 94 95 97 96 95 90 95 94 95 98 96 96 96 96 94 94 96 100 94 82 82 82 82 82 82 83 83
95 96 97 97 93 96 96 95 97 97 97 96 96 92 90 92 92 92 95 96 93 96 93 94 95 94 94 93 93 93 94 96 99 99 96 83 81 81 82 82 82 83 82
93 94 96 94 90 92 91 94 95 96 96 97 95 94 94 93 92 93 94 94 95 96 96 94 95 93 91 95 94 93 94 95 96 97 97 83 81 81 81 82 82 82 78
94 94 97 94 90 90 90 89 92 95 96 95 96 96 92 93 93 94 93 94 95 96 97 96 94 92 94 96 95 94 93 96 97 95 97 96 82 81 81 81 82 83 81
95 96 96 93 93 89 88 89 91 94 97 95 96 94 92 92 91 89 93 94 96 96 93 95 94 95 96 97 95 95 95 96 97 96 96 97 95 80 81 81 81 82 82
96 93 94 96 94 91 90 91 93 95 95 96 96 96 93 91 90 91 94 95 97 96 96 96 96 95 95 96 95 97 97 98 97 96 98 97 97 98 81 80 81 81 82
95 92 92 93 93 92 89 91 92 93 93 95 96 96 94 93 94 92 95 96 95 96 96 96 95 94 93 94 96 97 97 97 98 100 96 94 94 93 97 81 80 80 81
95 94 92 92 91 91 92 90 93 94 94 95 95 96 95 95 94 93 95 94 95 96 96 96 91 94 92 93 96 95 95 99 99 98 96 98 96 93 94 93 91 90 81
96 93 91 90 89 90 90 89 90 91 93 95 96 94 93 94 94 93 95 95 95 93 93 91 92 90 92 95 92 94 96 98 98 100 99 100 97 96 96 94 93 96 94
95 93 91 90 89 88 92 92 93 94 95 96 97 96 94 93 94 94 92 94 94 95 91 90 89 91 94 95 89 90 89 94 97 97 98 96 95 97 96 94 94 92 93
95 93 91 90 90 89 91 92 92 92 93 94 94 94 95 93 93 93 92 92 92 92 94 92 91 88 89 93 92 87 85 86 91 96 95 98 95 97 99 97 94 93 91
97 97 94 92 90 91 89 91 88 91 91 96 96 98 98 96 94 94 93 92 91 94 92 93 94 90 89 89 94 96 92 88 83 85 95 96 95 94 94 97 98 96 93
99 99 97 93 90 90 89 89 90 87 95 96 97 94 93 94 94 95 94 92 90 92 92 90 89 88 92 91 92 92 91 92 86 84 85 91 97 99 100 99 99 100 98
101 100 100 94 89 90 89 87 87 89 89 94 94 94 96 98 99 94 94 92 92 92 91 92 90 89 88 89 92 90 85 85 90 89 86 88 91 96 99 100 99 99 98
MSLP
1011.80 1012.85 1013.99 1014.18 1014.48 1014.71 1014.95 1015.22 1015.57 1015.98 1016.27 1016.55 1016.79 1016.95 1017.12 1017.35 1017.51 1017.62 1017.82 1017.99 1018.01 1017.99 1017.99 1018.03 1018.07 1018.09 1018.09 1018.15 1018.14 1018.15 1018.10 1018.04 1017.96 1017.98 1017.94 1017.93 1017.79 1017.88 1018.14 1018.14 1017.87 1017.47 1018.26
1011.60 1012.83 1014.07 1014.31 1014.57 1014.83 1015.09 1015.35 1015.69 1016.10 1016.43 1016.77 1017.00 1017.12 1017.31 1017.53 1017.67 1017.81 1017.91 1018.06 1018.14 1018.17 1018.15 1018.17 1018.23 1018.25 1018.21 1018.22 1018.25 1018.19 1018.15 1018.09 1018.08 1017.97 1017.93 1017.99 1017.94 1018.06 1018.16 1018.19 1018.04 1017.90 1018.42
1011.51 1012.79 1013.95 1014.57 1014.73 1014.97 1015.26 1015.53 1015.81 1016.17 1016.49 1016.84 1017.10 1017.26 1017.43 1017.57 1017.72 1017.94 1018.13 1018.17 1018.22 1018.23 1018.30 1018.32 1018.32 1018.29 1018.24 1018.21 1018.26 1018.25 1018.21 1018.22 1018.09 1017.95 1017.80 1017.30 1016.93 1018.05 1018.17 1018.21 1018.26 1018.38 1018.55
1011.25 1012.52 1013.37 1014.73 1014.96 1015.15 1015.48 1015.71 1015.95 1016.22 1016.59 1016.97 1017.16 1017.35 1017.54 1017.70 1017.91 1018.11 1018.25 1018.31 1018.33 1018.40 1018.42 1018.37 1018.37 1018.37 1018.35 1018.31 1018.29 1018.22 1018.17 1018.18 1018.07 1018.03 1017.21 1016.66 1016.64 1017.85 1018.18 1018.21 1018.41 1018.55 1018.62
1011.28 1012.15 1013.33 1014.78 1015.14 1015.44 1015.69 1015.95 1016.19 1016.41 1016.78 1017.07 1017.30 1017.56 1017.71 1017.85 1018.03 1018.17 1018.33 1018.43 1018.44 1018.50 1018.45 1018.43 1018.41 1018.42 1018.36 1018.32 1018.25 1018.15 1018.02 1018.03 1017.99 1017.73 1016.81 1016.92 1017.04 1017.51 1018.08 1018.29 1018.37 1018.59 1018.48
1011.19 1011.84 1014.12 1014.92 1015.36 1015.67 1015.97 1016.22 1016.46 1016.67 1016.97 1017.20 1017.43 1017.61 1017.81 1018.00 1018.15 1018.37 1018.53 1018.59 1018.65 1018.56 1018.57 1018.48 1018.43 1018.41 1018.31 1018.18 1018.07 1018.01 1017.98 1018.03 1017.84 1016.44 1016.68 1016.96 1017.11 1017.59 1018.00 1018.16 1018.16 1018.17 1018.39
1011.03 1011.66 1013.95 1015.01 1015.46 1015.79 1016.11 1016.35 1016.57 1016.81 1017.08 1017.30 1017.54 1017.74 1017.95 1018.14 1018.30 1018.48 1018.58 1018.62 1018.60 1018.52 1018.59 1018.55 1018.41 1018.31 1018.28 1018.21 1017.96 1017.89 1017.85 1017.86 1017.34 1016.20 1016.40 1016.77 1016.51 1017.45 1017.82 1017.97 1017.99 1018.07 1018.38
1011.00 1011.81 1013.65 1015.05 1015.55 1015.94 1016.27 1016.57 1016.82 1017.07 1017.34 1017.53 1017.71 1017.93 1018.09 1018.22 1018.29 1018.43 1018.53 1018.50 1018.59 1018.53 1018.50 1018.39 1018.33 1018.18 1018.04 1017.99 1017.89 1017.76 1017.71 1017.76 1016.89 1015.97 1016.09 1016.07 1016.59 1017.41 1017.75 1017.77 1017.92 1018.09 1018.20
1011.25 1011.91 1013.44 1014.65 1015.42 1016.06 1016.45 1016.75 1017.03 1017.26 1017.47 1017.64 1017.77 1017.97 1018.14 1018.27 1018.33 1018.46 1018.56 1018.55 1018.59 1018.53 1018.41 1018.35 1018.20 1017.87 1017.67 1017.66 1017.57 1017.44 1017.36 1017.46 1017.13 1016.27 1016.09 1015.74 1016.30 1016.98 1017.51 1017.66 1017.74 1017.90 1018.04
1011.60 1011.96 1012.95 1013.95 1014.78 1015.34 1016.01 1016.83 1017.12 1017.36 1017.54 1017.67 1017.79 1017.98 1018.14 1018.23 1018.21 1018.28 1018.33 1018.24 1018.44 1018.38 1018.09 1018.09 1018.05 1017.81 1017.56 1017.35 1017.22 1017.19 1017.09 1016.94 1016.46 1015.96 1016.22 1016.03 1016.69 1017.06 1017.31 1017.46 1017.48 1017.59 1017.70
1011.81 1012.22 1012.69 1013.38 1014.35 1014.97 1015.30 1016.30 1017.10 1017.37 1017.55 1017.69 1017.77 1017.91 1018.03 1017.37 1016.73 1017.07 1017.29 1017.85 1018.07 1018.05 1017.77 1017.65 1017.77 1017.41 1017.11 1016.89 1016.67 1016.84 1016.82 1016.20 1016.33 1015.03 1014.84 1015.69 1016.44 1016.79 1016.98 1017.06 1017.15 1017.21 1017.41
1011.53 1012.07 1012.51 1013.08 1013.74 1014.57 1014.95 1015.56 1016.21 1016.36 1016.64 1016.74 1016.71 1016.83 1016.91 1016.61 1016.91 1017.11 1017.26 1017.59 1017.66 1017.59 1017.44 1017.36 1017.25 1016.90 1016.47 1015.97 1015.42 1015.89 1015.20 1015.63 1016.08 1014.79 1014.59 1015.54 1016.16 1016.36 1016.52 1016.68 1016.89 1016.99 1017.09
1011.21 1011.85 1012.45 1013.02 1013.57 1014.05 1014.59 1015.13 1015.49 1015.65 1015.94 1016.21 1016.69 1016.85 1016.68 1016.73 1016.61 1016.48 1016.27 1016.32 1016.35 1016.70 1016.29 1016.17 1015.91 1015.43 1015.32 1015.48 1015.17 1015.28 1015.43 1015.29 1014.56 1014.22 1014.73 1015.57 1015.97 1016.12 1016.18 1016.27 1016.55 1016.77 1016.93
1011.07 1011.70 1012.34 1012.93 1013.81 1013.87 1014.43 1015.01 1015.03 1015.22 1015.47 1015.71 1015.88 1016.55 1016.76 1016.62 1016.41 1016.48 1016.08 1016.07 1016.36 1016.03 1016.15 1015.91 1015.67 1015.69 1015.57 1015.52 1015.45 1015.33 1015.03 1014.77 1014.19 1014.19 1014.14 1014.99 1015.57 1015.69 1015.81 1016.06 1016.03 1016.32 1016.75
1010.92 1011.63 1012.20 1013.04 1013.95 1014.21 1014.64 1014.71 1014.85 1014.99 1015.29 1015.39 1015.81 1016.01 1016.25 1016.18 1016.14 1016.14 1016.05 1016.08 1015.89 1015.69 1015.57 1015.49 1015.35 1015.55 1015.59 1014.89 1015.00 1014.93 1014.72 1014.49 1014.27 1014.11 1013.95 1014.61 1015.11 1015.39 1015.40 1015.67 1015.81 1016.01 1015.93
1010.74 1011.43 1012.13 1012.97 1013.88 1014.36 1014.65 1014.93 1014.97 1014.97 1015.03 1015.35 1015.31 1015.55 1016.16 1016.12 1016.00 1015.88 1015.85 1015.67 1015.49 1015.37 1015.24 1015.22 1015.22 1015.36 1015.01 1014.50 1014.41 1014.36 1014.38 1013.98 1013.54 1013.90 1013.70 1013.58 1014.31 1014.72 1014.92 1015.12 1015.31 1015.56 1015.56
1010.47 1011.13 1011.73 1012.71 1013.43 1014.23 1014.66 1014.94 1015.03 1014.73 1014.67 1014.90 1015.01 1015.43 1015.81 1016.01 1015.98 1016.18 1015.62 1015.49 1015.20 1015.23 1015.52 1015.15 1014.96 1014.65 1014.41 1014.12 1013.93 1013.93 1013.80 1013.41 1013.11 1013.21 1013.21 1012.88 1012.89 1013.99 1014.31 1014.46 1014.78 1014.96 1014.96
1010.06 1010.84 1011.51 1012.31 1012.90 1013.78 1014.27 1014.42 1014.45 1014.48 1014.55 1014.54 1014.67 1014.82 1015.23 1015.62 1015.84 1015.71 1015.34 1015.06 1014.78 1014.99 1014.88 1014.72 1014.60 1014.39 1014.18 1013.87 1013.63 1013.21 1013.00 1012.73 1012.67 1012.76 1012.48 1012.47 1012.30 1012.27 1013.65 1013.78 1014.08 1014.36 1014.54
1009.79 1010.63 1011.41 1012.08 1012.55 1013.14 1013.87 1014.03 1014.27 1014.29 1014.57 1014.41 1014.39 1014.42 1014.71 1015.03 1015.09 1015.26 1014.77 1014.57 1014.78 1014.51 1014.40 1014.44 1014.37 1014.46 1014.11 1013.88 1013.27 1012.83 1012.74 1012.41 1012.14 1011.69 1012.21 1012.37 1012.43 1012.58 1012.08 1012.89 1013.43 1013.71 1013.73
1009.41 1010.33 1011.19 1011.77 1012.32 1012.87 1013.38 1013.91 1013.78 1013.85 1014.01 1014.03 1014.09 1014.07 1014.25 1014.44 1014.69 1014.79 1014.41 1014.46 1014.51 1014.25 1014.07 1014.02 1014.36 1014.28 1014.21 1013.83 1013.27 1012.86 1012.49 1011.90 1011.71 1011.64 1011.85 1011.58 1011.67 1012.10 1012.07 1012.10 1012.39 1012.38 1012.95
1008.95 1009.84 1010.60 1011.29 1011.94 1012.60 1012.99 1013.05 1013.22 1013.14 1013.39 1013.51 1013.53 1013.81 1014.07 1014.18 1014.21 1014.35 1014.07 1013.97 1014.02 1014.17 1014.07 1014.27 1014.14 1013.93 1013.68 1013.28 1013.05 1012.16 1011.72 1011.29 1011.27 1011.31 1011.28 1011.05 1011.30 1011.38 1011.53 1011.71 1011.87 1011.48 1011.51
1008.32 1009.19 1010.09 1010.77 1011.52 1012.12 1012.21 1012.44 1012.57 1012.69 1012.71 1012.84 1012.92 1013.17 1013.65 1013.77 1013.82 1013.86 1013.98 1013.83 1013.78 1013.76 1014.00 1014.25 1014.24 1013.71 1013.17 1012.95 1012.96 1012.33 1011.01 1010.44 1010.85 1010.82 1010.94 1011.10 1010.97 1010.87 1011.03 1011.16 1011.16 1011.39 1011.30
1007.39 1008.41 1009.23 1010.05 1010.63 1011.34 1011.65 1012.08 1012.45 1012.56 1012.55 1012.32 1012.47 1012.71 1012.85 1013.20 1013.27 1013.27 1013.35 1013.55 1013.65 1013.82 1013.40 1013.42 1013.70 1013.74 1013.13 1012.73 1012.70 1012.79 1011.57 1010.55 1010.45 1010.36 1010.25 1010.27 1010.70 1010.46 1010.16 1010.21 1010.61 1010.72 1010.89
1006.25 1007.29 1008.23 1009.14 1009.91 1010.53 1011.19 1011.17 1011.44 1011.35 1011.29 1011.24 1011.48 1011.49 1011.75 1012.04 1012.49 1012.73 1012.91 1013.13 1013.35 1013.31 1013.00 1012.95 1012.99 1013.23 1013.17 1012.45 1012.03 1011.69 1011.86 1012.03 1011.40 1010.26 1009.86 1009.65 1009.92 1010.06 1010.00 1009.85 1009.62 1009.81 1010.20
1005.50 1006.26 1007.14 1008.14 1009.05 1009.72 1010.32 1010.66 1010.82 1011.12 1010.60 1010.79 1010.86 1011.12 1011.51 1011.70 1011.81 1012.01 1012.08 1012.45 1012.87 1012.97 1012.61 1012.67 1012.78 1012.77 1012.63 1012.30 1011.86 1011.46 1011.29 1011.29 1011.25 1011.04 1009.57 1009.13 1008.77 1008.58 1008.59 1008.84 1008.99 1008.78 1008.77
1004.57 1005.37 1006.07 1007.18 1008.22 1009.02 1009.61 1010.22 1010.34 1010.21 1010.42 1010.18 1010.33 1010.51 1010.71 1010.69 1010.81 1011.35 1011.63 1011.88 1012.07 1012.09 1012.13 1012.23 1012.27 1012.27 1012.19 1012.01 1011.52 1011.37 1011.17 1010.77 1010.31 1009.95 1009.46 1008.95 1008.27 1007.91 1007.74 1007.97 1008.14 1008.31 1008.38
Wind_Speed
17 18 12 13 14 13 14 14 15 15 15 15 14 13 12 11 10 9 9 8 7 7 7 7 7 6 5 5 5 5 5 3 3 5 7 6 7 7 8 9 10 11 10
21 19 13 12 13 13 14 15 16 15 15 14 14 13 11 11 9 8 7 7 6 6 6 6 6 6 5 5 4 4 2 2 2 1 7 9 7 7 7 4 4 14 9
21 20 17 12 13 14 13 15 16 16 16 15 14 13 11 10 9 8 7 5 4 4 4 4 4 4 3 3 4 4 2 1 0 1 4 9 10 7 5 5 3 8 7
22 20 19 13 13 14 14 14 16 16 16 15 13 13 11 10 8 7 6 4 3 2 2 2 2 2 2 2 2 2 2 2 2 4 10 2 3 10 7 7 6 7 8
21 20 20 14 14 14 14 14 15 15 15 14 13 12 11 9 8 6 5 3 1 0 1 2 2 2 3 3 3 3 3 3 4 9 3 5 5 13 6 5 10 9 10
21 20 22 15 16 15 15 14 14 14 14 14 13 11 10 8 7 5 3 1 1 3 4 5 5 5 5 6 6 6 6 6 8 9 4 5 8 11 6 8 8 9 12
20 19 20 16 15 15 14 14 14 14 13 13 12 10 8 7 5 4 3 3 4 6 6 7 8 8 9 9 10 9 8 7 11 6 5 6 5 5 5 6 8 9 10
19 19 20 16 15 15 15 14 14 14 13 11 10 9 7 6 6 5 4 5 5 7 7 8 9 11 11 11 11 11 11 9 10 8 6 7 10 6 6 6 8 9 11
17 18 18 17 15 15 14 14 13 12 11 10 9 8 7 6 6 6 5 7 7 8 9 9 11 14 13 12 12 11 11 11 11 8 8 6 15 10 10 10 11 11 12
16 16 17 16 16 14 15 13 12 11 11 10 9 8 7 6 8 9 7 12 7 8 10 8 9 14 14 11 11 10 9 9 12 8 7 7 3 5 10 12 11 11 13
15 15 16 16 14 13 12 13 11 11 10 9 9 8 8 9 8 7 3 3 7 9 11 5 14 11 11 12 10 4 8 4 5 6 5 11 7 8 12 13 12 10 14
18 17 15 15 15 13 9 12 12 11 10 9 8 7 7 6 5 7 8 6 10 11 11 10 13 13 15 6 3 10 3 3 4 9 5 9 9 12 13 13 12 11 14
18 15 15 14 13 14 10 8 7 6 6 6 7 6 6 5 4 5 4 5 5 9 6 4 6 6 6 6 4 4 5 5 4 4 4 6 6 10 12 13 11 12 13
18 16 16 15 12 12 8 8 7 7 7 5 7 8 6 5 5 5 5 4 4 4 5 5 5 6 6 5 6 6 6 6 4 4 4 7 8 10 11 11 10 10 9
17 16 15 14 13 10 10 8 8 7 6 7 6 7 6 5 4 5 4 5 5 5 5 5 5 5 5 5 5 6 7 7 7 5 5 11 10 12 14 13 12 9 16
17 17 16 15 14 13 11 9 7 7 6 6 6 6 7 6 5 5 5 5 5 5 5 5 6 6 6 6 6 6 7 8 6 6 6 5 13 13 15 16 16 14 21
16 16 16 15 16 14 13 11 9 7 8 6 7 7 7 7 6 6 5 5 5 4 6 7 6 6 7 6 7 6 7 8 7 6 7 7 6 14 15 15 15 16 16
16 17 16 13 15 15 12 10 8 8 7 7 6 6 7 8 7 7 6 6 5 5 6 6 6 7 7 7 6 7 6 7 7 8 7 5 5 5 13 15 15 13 15
17 16 15 15 15 15 13 10 10 9 8 7 7 6 7 9 9 8 7 7 6 7 6 6 6 6 7 8 9 7 8 8 8 7 6 6 5 5 6 17 15 14 13
17 16 15 13 14 13 9 9 8 8 9 8 8 8 8 8 9 8 8 8 7 7 7 6 6 7 7 8 8 9 9 7 7 6 6 5 4 5 6 5 8 12 15
17 16 16 15 14 11 10 10 10 10 9 9 9 11 10 10 10 8 8 8 7 7 6 7 7 8 7 6 7 8 7 9 6 3 4 5 3 5 3 5 5 5 7
18 17 16 15 15 14 10 9 8 8 8 8 8 9 11 12 11 10 9 9 8 8 7 7 7 8 7 6 6 9 7 7 3 7 3 4 5 4 5 7 6 6 6
20 19 17 17 17 16 14 9 8 6 7 8 9 9 10 12 13 13 12 10 10 9 9 8 8 8 9 8 6 5 7 8 11 6 8 3 4 7 6 6 7 7 8
22 20 19 18 17 16 16 12 13 10 10 10 9 8 8 11 12 12 12 11 11 10 10 8 8 8 8 10 8 8 8 9 7 7 7 6 10 8 9 8 8 9 9
21 19 18 19 18 17 17 16 13 14 11 9 9 9 9 9 11 12 12 12 11 10 10 10 9 9 9 9 9 9 9 9 8 10 12 9 9 7 9 9 9 9 9
21 20 19 19 17 18 17 18 17 15 14 11 10 9 8 9 8 11 11 11 11 11 11 10 10 11 10 10 9 9 8 9 11 11 11 12 13 10 9 8 8 8 9
Wind_Direction
147 145 168 152 154 154 152 156 153 150 147 144 142 137 138 135 124 118 107 103 98 86 80 77 72 65 61 65 69 74 84 87 90 131 139 131 127 126 129 143 188 118 132
150 148 160 151 151 154 150 152 151 150 145 144 142 137 136 135 132 126 118 105 98 84 73 66 61 59 52 54 61 79 96 100 98 113 156 154 152 150 142 156 304 108 144
148 146 159 150 147 147 147 150 149 149 147 149 146 143 139 142 140 137 122 114 103 90 69 54 51 54 47 48 48 55 66 56 317 298 277 226 142 157 153 151 110 130 158
148 149 152 147 143 144 140 144 149 148 146 149 151 147 146 146 142 137 132 128 118 89 66 35 29 17 3 6 22 12 355 342 272 247 229 186 175 153 163 163 167 178 175
151 156 130 147 143 141 138 143 145 144 145 152 151 150 151 149 152 154 152 152 163 126 306 310 301 303 296 298 297 293 287 288 286 256 229 231 230 131 167 169 186 192 205
156 156 131 148 149 147 145 145 145 144 148 154 155 159 157 159 163 167 166 189 265 277 294 298 299 298 287 285 285 284 288 288 277 249 265 141 266 114 186 224 243 204 198
158 146 149 156 153 152 153 152 150 151 156 159 160 166 167 168 183 189 202 232 258 278 300 308 305 300 298 295 288 285 279 275 278 286 239 247 227 114 236 215 214 196 198
157 144 150 153 156 159 161 160 160 162 165 168 168 171 179 191 208 214 224 246 271 290 298 301 298 297 294 289 284 284 279 274 268 250 254 249 119 146 230 230 217 210 205
158 154 155 165 167 168 173 173 173 172 174 175 178 182 198 215 233 242 244 266 280 295 299 304 321 311 297 285 286 279 280 277 277 290 297 254 142 173 224 242 224 215 217
161 160 161 167 173 181 172 181 182 183 184 185 190 195 207 227 235 236 249 227 259 284 284 287 261 271 286 293 280 281 286 272 249 248 236 268 102 193 235 247 237 225 216
169 164 168 166 175 179 180 168 185 190 196 199 203 209 218 243 214 209 133 334 287 278 280 308 294 277 277 272 261 243 267 259 302 264 256 142 218 241 243 247 246 232 211
173 171 173 179 173 175 185 165 199 189 202 205 213 215 221 264 293 317 304 258 258 265 275 264 250 264 249 250 209 203 264 255 220 265 243 144 206 229 238 251 251 231 210
175 173 178 182 178 177 190 180 191 198 204 200 226 234 242 284 251 248 261 237 238 204 269 286 305 301 349 329 320 326 339 281 288 290 80 140 211 235 246 251 249 243 227
177 179 179 183 179 193 186 191 197 206 203 220 203 211 236 240 230 251 267 277 246 261 311 290 313 334 308 296 296 293 291 294 297 297 259 176 225 239 244 253 249 246 284
178 182 186 177 178 200 193 193 216 213 205 225 219 210 240 258 263 271 284 275 279 274 275 283 306 350 317 280 294 284 287 297 297 283 282 172 215 248 245 234 247 210 203
180 183 185 185 184 198 200 210 211 219 223 230 237 227 218 254 256 277 260 262 268 269 286 309 325 302 316 306 301 296 283 280 265 273 274 250 199 226 244 244 237 237 219
181 187 189 190 187 196 204 203 217 224 217 230 230 234 235 244 226 265 267 276 280 284 278 262 276 273 276 290 296 268 272 277 280 269 257 267 199 204 232 238 238 236 237
186 191 193 191 191 195 200 207 223 221 235 239 238 239 217 229 237 245 254 257 269 280 278 280 286 289 291 294 310 287 302 293 286 286 270 268 270 259 199 226 228 223 228
192 188 195 192 201 198 201 211 220 227 227 244 242 235 213 226 231 242 259 265 259 274 277 283 299 303 301 294 288 317 301 297 288 295 316 285 262 263 264 174 206 225 223
188 191 195 196 203 202 204 213 224 226 229 231 235 236 227 230 238 244 257 264 266 267 269 273 303 301 301 285 294 308 283 277 292 305 288 255 235 249 264 263 199 208 207
190 192 196 196 194 198 200 204 212 221 222 229 230 232 237 236 242 241 257 251 245 259 289 289 261 254 284 296 300 290 311 272 259 272 255 277 263 234 262 238 248 250 197
193 197 199 206 196 200 202 209 214 217 225 228 230 233 228 237 242 245 251 263 267 282 266 272 269 285 281 282 289 307 304 297 126 240 295 262 272 248 230 223 240 242 253
200 198 201 205 205 204 213 198 201 227 232 214 222 229 225 232 241 240 248 254 274 269 272 265 254 261 283 296 279 275 304 315 332 303 225 256 289 263 271 220 229 231 233
201 200 203 205 207 204 203 206 208 213 222 222 227 228 235 224 234 239 242 247 254 268 281 268 251 262 273 281 284 270 259 287 295 299 299 249 225 241 257 257 234 211 223
202 201 199 202 207 213 201 218 207 224 229 232 232 234 234 251 237 240 240 244 249 248 247 250 265 261 274 272 283 290 288 276 241 265 290 294 289 271 244 227 250 258 224
200 204 203 201 205 207 209 208 221 224 228 240 223 239 237 241 227 219 247 241 239 243 244 249 257 256 259 276 275 277 268 279 293 288 277 279 283 284 273 269 262 261 250